Home   Weather   Fairbanks   Past weeks

Flag for USA Past Weather in Fairbanks, Alaska, USA — Yesterday and Last 2 Weeks

Now
46 °F

Scattered clouds.


Feels Like: 43 °F
Forecast: 32 / 40 °F
Wind: 5 mph from South

Location: Wainwright U. S. Army Airfield

Current Time: Sep 24, 2016 at 7:47:15 PM

Latest Report: Sep 24, 2016 at 6:58 PM


Visibility: 10 mi

Pressure: 29.74 "Hg

Humidity: 78%

Dew Point: 39 °F

Location of FairbanksLocation

Past Weather in Fairbanks — Graph

°F

Fairbanks Temperature Yesterday

Maximum temperature yesterday: 45 °F (at 3:58 PM)
Minimum temperature yesterday: 38 °F (at 11:58 PM)
Average temperature yesterday: 43 °F

High & Low Weather Summary for the Past Weeks

 TemperatureHumidityPressure
High63 °F (Sep 20, 4:58 PM)100% (Sep 16, 10:58 AM)30.15 "Hg (Sep 16, 10:58 AM)
Low32 °F (Sep 10, 6:58 AM)32% (Sep 20, 4:58 PM)28.82 "Hg (Sep 22, 1:58 PM)
Average47 °F77%29.60 "Hg
* Reported Sep 9 5:58 PM — Sep 24 5:58 PM, Fairbanks, Weather by CustomWeather, © 2016

Note: Actual official high and low records may vary slightly from our data, if they occured in-between our weather recording intervals... More about our weather records

Advertising

Fairbanks Weather History for the Previous 24 Hours

Scroll right to see more
 ConditionsComfort  
Time TempWeatherWind HumidityBarometerVisibility
5:58 PM
Sat, Sep 24
50 °FScattered clouds.9 mph63%29.71 "Hg10 mi
4:58 PM50 °FScattered clouds.2 mph63%29.71 "Hg10 mi
3:58 PM48 °FOvercast.6 mph69%29.72 "Hg10 mi
2:58 PM48 °FOvercast.2 mph69%29.70 "Hg10 mi
1:58 PM47 °FPassing clouds.No wind72%29.70 "Hg10 mi
12:58 PM43 °FScattered clouds.No wind84%29.70 "Hg10 mi
11:58 AM40 °FOvercast.No wind89%29.69 "Hg10 mi
10:58 AM38 °FOvercast.1 mph94%29.69 "Hg9 mi
9:58 AM37 °FOvercast.No wind91%29.68 "Hg10 mi
8:58 AM35 °FOvercast.No wind94%29.66 "Hg9 mi
7:58 AM35 °FOvercast.No wind95%29.65 "Hg10 mi
6:58 AM35 °FOvercast.7 mph95%29.64 "Hg10 mi
5:58 AM36 °FOvercast.5 mph96%29.64 "Hg10 mi
4:58 AM35 °FOvercast.1 mph96%29.62 "Hg10 mi
3:58 AM33 °FPassing clouds.3 mph97%29.62 "Hg10 mi
2:58 AM34 °FClear.1 mph97%29.62 "Hg10 mi
1:58 AM36 °FClear.3 mph97%29.60 "Hg10 mi
12:58 AM36 °FClear.3 mph97%29.60 "Hg10 mi
11:58 PM
Fri, Sep 23
38 °FClear.2 mph97%29.59 "Hg10 mi
10:58 PM39 °FPassing clouds.2 mph96%29.59 "Hg10 mi
9:58 PM40 °FPassing clouds.5 mph96%29.57 "Hg10 mi
8:58 PM41 °FPassing clouds.6 mph95%29.54 "Hg10 mi
Weather by CustomWeather, © 2016

See weather overviewHow to use our weather pages